Voltar ao catálogo

METEOR 1-17

AtivoMeteoPO
NORAD 7274·PAYLOAD·🇷🇺 Russia

Lançado Apr 24, 1974 de Plesetsk Cosmodrome

Loading…

Próximas Passagens (próximas 24 horas)

TLE

AtualizadoSource: Space-Track

Época: Sep 14, 2026, 07:14 UTC

1 07274U 74025A   26257.30187108 -.00000012  00000-0 -14324-4 0  9991
2 07274  81.2127 210.3332 0019751  88.6006 271.7427 14.08926216690855

Acompanhe METEOR 1-17 em tempo real com AllMySat

Download on the App Store